Weather History for Lincoln, NE

Change the Weather History Date:

Tuesday, August 19, 2014

  Actual Average Record
Temperature  
Mean Temperature 80 °F 75 °F  
Max Temperature 93 °F 87 °F 100 °F (1962)
Min Temperature 66 °F 64 °F 45 °F (1950)
Degree Days  
Heating Degree Days 0 0  
Month to date heating degree days 0 0  
Since 1 June heating degree days 4 17  
Since 1 July heating degree days 2 1  
Cooling Degree Days 15 10  
Month to date cooling degree days 200 216  
Year to date cooling degree days 959 927  
Since 1 June cooling degree days 799 848  
Growing Degree Days 30 (Base 50)    
Moisture  
Dew Point 66 °F    
Average Humidity 68    
Maximum Humidity 97    
Minimum Humidity 38    
Precipitation  
Precipitation 0.00 in 0.12 in 1.24 in (2000)
Month to date precipitation 1.45 2.09  
Year to date precipitation 17.61 20.18  
Snow  
Snow 0.00 in 0.00 in - ()
Month to date snowfall 0.0 0.0  
Since 1 July snowfall 0.0 0.0  
Snow Depth 0.00 in    
Sea Level Pressure  
Sea Level Pressure 29.78 in    
Wind  
Wind Speed 5 mph (NNE)    
Max Wind Speed 13 mph    
Max Gust Speed 16 mph    
Visibility 10 miles    
Events      
T = Trace of Precipitation, MM = Missing Value Source: NWS Daily Summary

Daily Weather History Graph

Daily Weather History Graph

Search for Another Location

Airport:

Trip Planner

Search our weather history database for the weather conditions in past years. The results will help you decide how hot, cold, wet, or windy it might be!

Date:

Astronomy

Aug. 19, 2014 Rise Set
Actual Time 6:41 AM CDT 8:19 PM CDT
Civil Twilight 6:12 AM CDT 8:48 PM CDT
Nautical Twilight 5:36 AM CDT 9:23 PM CDT
Astronomical Twilight 4:59 AM CDT 10:00 PM CDT
Moon 1:33 AM CDT (8/19) 4:17 PM CDT (8/19)
Length of Visible Light 14h 36m
Length of Day
13h 38m
Waning Crescent, 29% of the Moon is Illuminated
Aug 19
Waning Crescent
Aug 25
New
Sep 2
First Quarter
Sep 8
Full
Sep 15
Last Quarter

Hourly Weather History & Observations

Time (CDT) Temp. Heat Index Dew Point Humidity Pressure Visibility Wind Dir Wind Speed Gust Speed Precip Events Conditions
12:54 AM 73.9 °F - 69.1 °F 85% 29.78 in 10.0 mi West 3.5 mph - N/A   Clear
1:54 AM 71.1 °F - 68.0 °F 90% 29.75 in 10.0 mi NNE 4.6 mph - N/A   Clear
2:54 AM 73.0 °F - 69.1 °F 87% 29.75 in 10.0 mi NNW 8.1 mph - N/A   Clear
3:54 AM 70.0 °F - 68.0 °F 93% 29.76 in 10.0 mi NE 3.5 mph - N/A   Clear
4:54 AM 72.0 °F - 68.0 °F 87% 29.76 in 10.0 mi WNW 3.5 mph - N/A   Clear
5:54 AM 69.1 °F - 66.9 °F 93% 29.78 in 9.0 mi Calm Calm - N/A   Clear
6:54 AM 66.0 °F - 64.0 °F 93% 29.81 in 9.0 mi NNW 3.5 mph - N/A   Clear
7:54 AM 70.0 °F - 66.9 °F 90% 29.82 in 9.0 mi Calm Calm - N/A   Clear
8:54 AM 75.0 °F - 64.9 °F 71% 29.82 in 10.0 mi Calm Calm - N/A   Clear
9:54 AM 80.1 °F 81.7 °F 64.0 °F 58% 29.83 in 10.0 mi Calm Calm - N/A   Clear
10:54 AM 82.9 °F 84.0 °F 63.0 °F 51% 29.83 in 9.0 mi Calm Calm - N/A   Clear
11:54 AM 84.9 °F 85.0 °F 61.0 °F 44% 29.82 in 10.0 mi NNE 4.6 mph - N/A   Clear
12:54 PM 88.0 °F 87.9 °F 61.0 °F 40% 29.80 in 9.0 mi Variable 3.5 mph - N/A   Clear
1:54 PM 90.0 °F 89.7 °F 60.1 °F 37% 29.79 in 9.0 mi North 5.8 mph - N/A   Clear
2:54 PM 91.0 °F 91.5 °F 62.1 °F 38% 29.77 in 9.0 mi ENE 8.1 mph - N/A   Clear
3:54 PM 91.0 °F 92.6 °F 64.0 °F 41% 29.77 in 9.0 mi NNE 9.2 mph - N/A   Clear
4:54 PM 91.0 °F 93.0 °F 64.9 °F 42% 29.75 in 9.0 mi NE 9.2 mph - N/A   Clear
5:54 PM 90.0 °F 92.4 °F 66.0 °F 45% 29.75 in 9.0 mi NE 9.2 mph - N/A   Clear
6:54 PM 88.0 °F 90.3 °F 66.0 °F 48% 29.75 in 9.0 mi NNE 8.1 mph - N/A   Clear
7:54 PM 82.0 °F 84.9 °F 68.0 °F 62% 29.74 in 9.0 mi NNE 5.8 mph - N/A   Clear
8:54 PM 81.0 °F 83.8 °F 68.0 °F 65% 29.75 in 10.0 mi ENE 9.2 mph - N/A   Clear
9:54 PM 82.0 °F 85.5 °F 69.1 °F 65% 29.76 in 10.0 mi ESE 8.1 mph - N/A   Clear
10:54 PM 79.0 °F - 70.0 °F 74% 29.75 in 10.0 mi SE 6.9 mph - N/A   Clear
11:54 PM 79.0 °F - 70.0 °F 74% 29.76 in 10.0 mi SE 5.8 mph - N/A   Clear